User: anonymous   Login
Location: Unspecified
(0.0000°N, 0.0000°E)
Time: 06:55:35
(UTC+00:00)
Language:

KAITUO 1B - Orbit

View from above orbital plane
View from above orbital plane
View from above satellite
View from above satellite

Ground track
Ground track

The orbit data is extracted from the following two-line orbital elements,

1 40912U 15049P   20193.96146554 +.00000561 +00000-0 +28908-4 0  9993
2 40912 097.4477 201.4429 0013106 251.3744 138.2918 15.20382654266445
Epoch (UTC): 11 July 2020 23:04:30
Eccentricity: 0.0013106
inclination: 97.4477°
perigee height: 495 km
apogee height: 514 km
right ascension of ascending node: 201.4429°
argument of perigee: 251.3744°
revolutions per day: 15.20382654
mean anomaly at epoch: 138.2918°
orbit number at epoch: 26644

The dashed part of the orbit path shows where the satellite is in the earth's shadow,  

DLR